Regional Weather Roundup
Issued by NWS

Home | Current Version | Previous Version | Text Only | Print | Product List | Glossary On
Versions: 1 2 3 4 5 6 7 8 9 10 11 12 13 14 15 16 17 18 19 20 21 22 23 24 25 26 27 28 29 30 31 32 33 34 35 36 37 38 39 40 41 42 43 44 45 46 47 48 49 50
000
ASUS43 KDTX 211810
RWRMI
MICHIGAN HOURLY REGIONAL WEATHER ROUNDUP
NATIONAL WEATHER SERVICE DETROIT/PONTIAC MI
200 PM EDT THU SEP 21 2017

NOTE: "FAIR" INDICATES FEW OR NO CLOUDS BELOW 12,000 FEET WITH NO
SIGNIFICANT WEATHER AND/OR OBSTRUCTION TO VISIBILITY.

MIZ047>049-052>055-059>063-066>070-074>076-081>083-211900-
SOUTHEAST LOWER MICHIGAN

CITY           SKY/WX    TMP DP  RH WIND       PRES   REMARKS
ADRIAN         MOSUNNY   89  68  49 S7        30.07F HX  93
6HR MIN TEMP:  67; 6HR MAX TEMP:  90;

ALMA           MOSUNNY   90  65  44 SW8       30.04F HX  91
ANN ARBOR      SUNNY     89  71  55 S6        30.06F HX  95
BAD AXE        SUNNY     88  69  54 S6        30.06F HX  92
CARO           SUNNY     89  70  52 S6        30.04F HX  94
DETROIT CITY   SUNNY     85  72  65 S9        30.06F HX  91
6HR MIN TEMP:  68; 6HR MAX TEMP:  85;

DETROIT        MOSUNNY   88  73  61 S10       30.07F HX  95
6HR MIN TEMP:  68; 6HR MAX TEMP:  88;

FLINT          SUNNY     90  69  50 S6        30.05F HX  94
6HR MIN TEMP:  69; 6HR MAX TEMP:  90;

GROSSE ILE     SUNNY     79  71  75 S8        30.06F
6HR MIN TEMP:  70; 6HR MAX TEMP:  79;

HILLSDALE      SUNNY     88  68  51 SW8       30.08F HX  91
HOWELL         SUNNY     90  69  50 S7        30.06F HX  94
6HR MIN TEMP:  68; 6HR MAX TEMP:  90;


CITY           SKY/WX    TMP DP  RH WIND       PRES   REMARKS
JACKSON        MOSUNNY   91  67  44 S8        30.06F HX  94
6HR MIN TEMP:  69; 6HR MAX TEMP:  91;

LAMBERTVILLE   SUNNY     90  71  53 CALM      30.07S HX  95
6HR MIN TEMP:  68; 6HR MAX TEMP:  90;

LANSING        MOSUNNY   91  67  44 SW9       30.05F HX  94
6HR MIN TEMP:  70; 6HR MAX TEMP:  92;

LAPEER         FAIR      90  67  47 SW8       30.06F HX  93
6HR MIN TEMP:  67; 6HR MAX TEMP:  90;

MASON          MOSUNNY   92  67  43 S6        30.06S HX  96
MONROE           N/A     87  72  59 S7        30.06F HX  93
MT. CLEMENS    MOSUNNY   83  75  75 SE7       30.06F HX  90
6HR MIN TEMP:  68; 6HR MAX TEMP:  83;

PONTIAC        MOSUNNY   88  70  55 S9        30.06S HX  93
6HR MIN TEMP:  68; 6HR MAX TEMP:  88;

PORT HOPE        N/A     74  68  81 SE12      30.04
6HR MIN TEMP:  69; 6HR MAX TEMP:  84;

PORT HURON     SUNNY     86  70  58 SE9       30.07F HX  90
TRI CITIES     MOSUNNY   88  72  58 S7        30.04F HX  94
6HR MIN TEMP:  69; 6HR MAX TEMP:  88;

MIDLAND        FAIR      87  70  56 SE5       30.03F HX  91
6HR MIN TEMP:  68; 6HR MAX TEMP:  88;

TROY           SUNNY     88  70  56 S6        30.08S HX  93
SAGINAW HB     SUNNY     88  70  55 S3        30.03F HX  92
$$
MIZ043>046-050>051-056>058-064>065-071>073-077>080-211900-
SOUTHWEST LOWER MICHIGAN

CITY           SKY/WX    TMP DP  RH WIND       PRES   REMARKS
BATTLE CREEK   SUNNY     91  70  49 SW8       30.06F HX  96
6HR MIN TEMP:  71; 6HR MAX TEMP:  91;

BENTON HARBOR  SUNNY     84  71  65 VRB6      30.04S
6HR MIN TEMP:  72; 6HR MAX TEMP:  87;

BIG RAPIDS     CLOUDY    84  68  58 W3        30.04F
6HR MIN TEMP:  66; 6HR MAX TEMP:  84;

COLDWATER      MOSUNNY   89  68  49 SW8       30.07S HX  92
6HR MIN TEMP:  70; 6HR MAX TEMP:  89;

FREMONT        FAIR      83  71  66 SW6       30.04S HAZE
6HR MIN TEMP:  68; 6HR MAX TEMP:  83;

HOLLAND        SUNNY     87  70  56 W7        30.05S HX  92
6HR MIN TEMP:  69; 6HR MAX TEMP:  87;

GRAND RAPIDS   PTSUNNY   92  69  47 SW7       30.03F HX  97
6HR MIN TEMP:  70; 6HR MAX TEMP:  92;

IONIA          FAIR      92  67  44 SW5       30.03F HX  95
6HR MIN TEMP:  70; 6HR MAX TEMP:  92;

KALAMAZOO      SUNNY     90  70  51 S10       30.04F HX  95
6HR MIN TEMP:  71; 6HR MAX TEMP:  91;

LUDINGTON      CLOUDY    78  65  66 W10       30.03R
6HR MIN TEMP:  65; 6HR MAX TEMP:  81;

MARSHALL       MOSUNNY   89  68  50 W8        30.06S HX  92
6HR MIN TEMP:  70; 6HR MAX TEMP:  90;

MOUNT PLEASANT PTSUNNY   88  68  51 S7        30.03S HX  91
6HR MIN TEMP:  68; 6HR MAX TEMP:  88;

MUSKEGON       PTSUNNY   83  69  62 SW8       30.05R
6HR MIN TEMP:  71; 6HR MAX TEMP:  84;

SOUTH HAVEN    SUNNY     85  71  62 CALM      30.04F
$$
MIZ016>042-211900-
NORTHERN LOWER MICHIGAN

CITY           SKY/WX    TMP DP  RH WIND       PRES   REMARKS
ALPENA         MOSUNNY   85  72  65 S7        30.03S HX  91
6HR MIN TEMP:  67; 6HR MAX TEMP:  85;

BEAVER ISLAND  MOSUNNY   77  68  72 E3        30.03F
6HR MIN TEMP:  67; 6HR MAX TEMP:  78;

BELLAIRE       PTSUNNY   84  65  52 CALM      30.02S
6HR MIN TEMP:  66; 6HR MAX TEMP:  84;

CADILLAC       SUNNY     89  66  47 SW8       30.05S HX  91
CHARLEVOIX     SUNNY     76  67  74 N6        30.06F
6HR MIN TEMP:  68; 6HR MAX TEMP:  79;

FRANKFORT      MOSUNNY   81  67  62 CALM      30.01F
GAYLORD        PTSUNNY   86  62  44 SW7       30.05S
6HR MIN TEMP:  65; 6HR MAX TEMP:  86;

GRAYLING       PTSUNNY   87  67  51 CALM      30.05S
6HR MIN TEMP:  65; 6HR MAX TEMP:  87;

HARBOR SPRINGS PTSUNNY   75  67  76 SW7       30.03S
HOUGHTON LAKE  SUNNY     84  68  58 CALM      30.05S
6HR MIN TEMP:  66; 6HR MAX TEMP:  85;

MANISTEE       MOSUNNY   85  69  58 CALM      30.01F
OSCODA         CLOUDY    84  67  57 S10G16    30.03F
6HR MIN TEMP:  67; 6HR MAX TEMP:  84;

PELLSTON       CLOUDY    82  70  66 CALM      30.03F
6HR MIN TEMP:  67; 6HR MAX TEMP:  84;

ROGERS CITY    PTSUNNY   74  68  83 NE6       30.05S
TRAVERSE CITY  PTSUNNY   87  67  51 N7        29.99F HX  90
6HR MIN TEMP:  71; 6HR MAX TEMP:  87;

$$
MIZ007>008-015-211900-
EASTERN UPPER MICHIGAN

CITY           SKY/WX    TMP DP  RH WIND       PRES   REMARKS
KINROSS        CLOUDY    72  68  87 E5        30.05S
6HR MIN TEMP:  67; 6HR MAX TEMP:  72;

MACKINAC ISLAN SUNNY     76  68  75 E5        30.04F
6HR MIN TEMP:  68; 6HR MAX TEMP:  78;

NEWBERRY       CLOUDY    75  72  89 N5        30.03F
6HR MIN TEMP:  65; 6HR MAX TEMP:  76;

S. S. MARIE    CLOUDY    75  68  78 VRB3      30.04S
6HR MIN TEMP:  67; 6HR MAX TEMP:  75;

MUNISING         N/A     65  62  90 NE10      30.05F
6HR MIN TEMP:  61; 6HR MAX TEMP:  68;

$$
MIZ004>006-011>014-085-211900-
CENTRAL UPPER MICHIGAN

CITY           SKY/WX    TMP DP  RH WIND       PRES   REMARKS
MANISTIQUE     CLOUDY    77  69  76 S6        30.03R
6HR MIN TEMP:  65; 6HR MAX TEMP:  78;

ESCANABA       SUNNY     76  66  71 CALM      30.01F
6HR MIN TEMP:  62; 6HR MAX TEMP:  76;

MENOMINEE      CLOUDY    71  65  81 E8        30.03F
6HR MIN TEMP:  66; 6HR MAX TEMP:  72;

SAWYER-GWINN   MOSUNNY   72  57  60 E7        30.06
$$
MIZ001>003-009>011-084-211900-
WESTERN UPPER MICHIGAN

CITY           SKY/WX    TMP DP  RH WIND       PRES   REMARKS
IRON MOUNTAIN  SUNNY     76  62  62 VRB3      30.03F
6HR MIN TEMP:  55; 6HR MAX TEMP:  76;

HOUGHTON       SUNNY     68  50  52 E9        30.05F
6HR MIN TEMP:  47; 6HR MAX TEMP:  69;

COPPER HARBOR    N/A     66  49  54 E7        30.05F
6HR MIN TEMP:  57; 6HR MAX TEMP:  66;

IRONWOOD       SUNNY     74  61  63 SE6       30.01F
6HR MIN TEMP:  40; 6HR MAX TEMP:  74;

$$

ABBREVIATIONS USED IN REMARKS
   TC - TEMPERATURE IN CELSIUS
  WCI - WIND CHILL INDEX
   HX - HEAT INDEX
  VSB - VISIBILITY





USA.gov is the U.S. government's official web portal to all federal, state and local government web resources and services.